Regional Weather Roundup
Issued by NWS

Home | Current Version | Previous Version | Graphics & Text | Print | Product List | Glossary On
Versions: 1 2 3 4 5 6 7 8 9 10 11 12 13 14 15 16 17 18 19 20 21 22 23 24 25 26 27 28 29 30 31 32 33 34 35 36 37 38 39 40 41 42 43 44 45 46 47 48 49 50
000
ASUS43 KMKX 211211
RWRWI

WISCONSIN REGIONAL WEATHER ROUNDUP
NATIONAL WEATHER SERVICE MILWAUKEE/SULLIVAN WI
700 AM CDT THU AUG 21 2014

NOTE: "FAIR" INDICATES FEW OR NO CLOUDS BELOW 12,000 FEET WITH NO
SIGNIFICANT WEATHER AND/OR OBSTRUCTIONS TO VISIBILITY.

WIZ001-002-006>008-014>016-023>028-211300-
NORTHWEST WISCONSIN

CITY           SKY/WX    TMP DP  RH WIND       PRES   REMARKS
SUPERIOR ARPT  CLOUDY    59  59 100 NE10      29.90F FOG
6HR MIN TEMP:  59; 6HR MAX TEMP:  62;

ASHLAND        CLOUDY    58  57  97 CALM      29.95R FOG
6HR MIN TEMP:  55; 6HR MAX TEMP:  60;

HAYWARD        CLOUDY    61  60  97 NE3       29.92R
6HR MIN TEMP:  55; 6HR MAX TEMP:  62;

SIREN          LGT RAIN  65  63  91 SE3       29.89R
6HR MIN TEMP:  63; 6HR MAX TEMP:  65; 6HR PCP:  0.01;

RICE LAKE      RAIN      64  61  90 E5        29.91R
6HR MIN TEMP:  63; 6HR MAX TEMP:  64; 6HR PCP:  0.01;

LADYSMITH      CLOUDY    63  61  93 E7        29.93R
6HR MIN TEMP:  61; 6HR MAX TEMP:  63;

EAU CLAIRE     LGT RAIN  66  65  96 E6        29.88R
6HR MIN TEMP:  65; 6HR MAX TEMP:  68; 6HR PCP:  0.03;

MENOMONIE      LGT RAIN  67  65  94 E6        29.88R
6HR MIN TEMP:  65; 6HR MAX TEMP:  67;

NEW RICHMOND   RAIN      65  65  99 E7        29.88R
6HR MIN TEMP:  65; 6HR MAX TEMP:  67; 6HR PCP:  0.11;

OSCEOLA        RAIN      67  67 100 E7        29.90R
6HR MIN TEMP:  66; 6HR MAX TEMP:  68; 6HR PCP:  0.12;

$$

WIZ003>005-009-010-017-018-211300-
NORTH CENTRAL WISCONSIN

CITY           SKY/WX    TMP DP  RH WIND       PRES   REMARKS
WOODRUFF       CLOUDY    62  59  91 SE5       29.97R FOG
6HR MIN TEMP:  57; 6HR MAX TEMP:  63;

RHINELANDER    FOG       60  60 100 SE5       29.98R VSB 1/2
6HR MIN TEMP:  57; 6HR MAX TEMP:  61;

EAGLE RIVER    CLOUDY    61  61 100 SE5       29.96F
6HR MIN TEMP:  57; 6HR MAX TEMP:  62;

LAND O LAKES   CLOUDY    61  61 100 E3        29.97F
6HR MIN TEMP:  56; 6HR MAX TEMP:  61;

PHILLIPS       CLOUDY    59  59  99 SE3       29.94R
6HR MIN TEMP:  54; 6HR MAX TEMP:  59;

TOMAHAWK       CLOUDY    59  58  97 SE3       29.97R FOG
6HR MIN TEMP:  49; 6HR MAX TEMP:  59; 6HR PCP:  0.01;

MEDFORD        CLOUDY    62  61  97 SE5       29.94R FOG
6HR MIN TEMP:  60; 6HR MAX TEMP:  62;

MERRILL        CLOUDY    59  59 100 NE3       29.96R FOG
6HR MIN TEMP:  54; 6HR MAX TEMP:  59;

$$

WIZ029-030-035-036-043>047-211300-
CENTRAL WISCONSIN

CITY           SKY/WX    TMP DP  RH WIND       PRES   REMARKS
WAUSAU         MOCLDY    61  60  97 E7        29.94R FOG
6HR MIN TEMP:  59; 6HR MAX TEMP:  61; 6HR PCP: TRACE;

MOSINEE        PTCLDY    61  61 100 E5        29.95S FOG
MARSHFIELD     CLOUDY    65  63  93 SE7       29.93R FOG
6HR MIN TEMP:  62; 6HR MAX TEMP:  64;

STEVENS POINT  CLOUDY    61  60  97 SE6       29.95R FOG
6HR MIN TEMP:  58; 6HR MAX TEMP:  61;

WAUPACA        CLOUDY    65  63  94 CALM      29.94S FOG
6HR MIN TEMP:  62; 6HR MAX TEMP:  65;

WAUTOMA        CLOUDY    65  63  93 CALM      29.94R
6HR MIN TEMP:  62; 6HR MAX TEMP:  65;

WISC RAPIDS    CLOUDY    64  62  93 SE6       29.93F
6HR MIN TEMP:  63; 6HR MAX TEMP:  65;

CAMP DOUGLAS   DRIZZLE   66  66 100 SE5       29.91S FOG
6HR MIN TEMP:  63; 6HR MAX TEMP:  66; 6HR PCP:  0.03;

$$

WIZ011>013-019>022-031-037>040-048>050-211300-
NORTHEAST WISCONSIN

CITY           SKY/WX    TMP DP  RH WIND       PRES   REMARKS
ANTIGO         FOG       61  61 100 E3        29.97S VSB 1/2
6HR MIN TEMP:  55; 6HR MAX TEMP:  61;

STURGEON BAY   CLOUDY    61  57  88 CALM      29.97R VSB<1/4
6HR MIN TEMP:  61; 6HR MAX TEMP:  64;

GREEN BAY      MOCLDY    63  62  97 CALM      29.95R FOG
6HR MIN TEMP:  58; 6HR MAX TEMP:  63;

MANITOWOC      CLEAR     63  62  97 CALM      29.95R
6HR MIN TEMP:  62; 6HR MAX TEMP:  64;

APPLETON       MOCLDY    64  63  94 VRB5      29.96R
CLINTONVILLE   PTCLDY    59  59 100 CALM      29.95R FOG
OSHKOSH        MOCLDY    65  62  90 SE3       29.94S
6HR MIN TEMP:  61; 6HR MAX TEMP:  65;

$$

WIZ032>034-041-042-053>061-211300-
SOUTHWEST WISCONSIN

CITY           SKY/WX    TMP DP  RH WIND       PRES   REMARKS
LA CROSSE      CLOUDY    72  66  81 SE3       29.89R
6HR MIN TEMP:  71; 6HR MAX TEMP:  73;

SPARTA         CLOUDY    69  66  90 E3        29.90S
6HR MIN TEMP:  66; 6HR MAX TEMP:  69;

VIROQUA        PTSUNNY   67  67 100 SE5       29.91S
6HR MIN TEMP:  66; 6HR MAX TEMP:  68; 6HR PCP:  0.17;

BOSCOBEL       CLOUDY    70  67  90 CALM      29.90S
6HR MIN TEMP:  68; 6HR MAX TEMP:  71; 6HR PCP:  0.53;

PRAIRIE DU CHI CLOUDY    71  66  86 CALM      29.90R
6HR MIN TEMP:  69; 6HR MAX TEMP:  71;

PLATTEVILLE    MOCLDY    69  67  90 SE7       29.94R
6HR MIN TEMP:  68; 6HR MAX TEMP:  71; 6HR PCP:  0.03;

$$

WIZ056-057-062-063-064-067-068-211300-
SOUTH CENTRAL WISCONSIN

CITY           SKY/WX    TMP DP  RH WIND       PRES   REMARKS
BARABOO/DELLS  CLOUDY    65  63  92 CALM      29.93R FOG
6HR MIN TEMP:  64; 6HR MAX TEMP:  67;

LONE ROCK      CLOUDY    73  68  84 SE5       29.90R
6HR MIN TEMP:  70; 6HR MAX TEMP:  73; 6HR PCP:  0.10;

WATERTOWN      CLOUDY    66  65  97 SE3       29.94R
6HR MIN TEMP:  65; 6HR MAX TEMP:  66;

MADISON        CLOUDY    70  66  87 S8        29.93R
6HR MIN TEMP:  67; 6HR MAX TEMP:  71; 6HR PCP: TRACE;

MIDDLETON      CLOUDY    69  69  97 S3        29.93S
6HR MIN TEMP:  67; 6HR MAX TEMP:  70; 6HR PCP:  0.06;

MONROE         CLOUDY    68  64  88 S9        29.94S
JANESVILLE     NOT AVBL
$$

WIZ051-052-058>065-066-070>072-211300-
SOUTHEAST WISCONSIN

CITY           SKY/WX    TMP DP  RH WIND       PRES   REMARKS
MILWAUKEE      MOCLDY    68  64  87 E3        29.94S
6HR MIN TEMP:  65; 6HR MAX TEMP:  68;

WAUKESHA       NOT AVBL
MILWAUKEE/TIMM CLOUDY    66  63  88 CALM      29.95S
RACINE         CLOUDY    68  65  90 CALM      29.96R
6HR MIN TEMP:  65; 6HR MAX TEMP:  69;

BURLINGTON     LGT RAIN  64  64 100 CALM      29.94S
6HR MIN TEMP:  61; 6HR MAX TEMP:  65;

KENOSHA        CLOUDY    67  66  97 CALM      29.95R
6HR MIN TEMP:  64; 6HR MAX TEMP:  67; 6HR PCP: TRACE;

FOND DU LAC    PTCLDY    65  61  87 S5        29.95R
6HR MIN TEMP:  63; 6HR MAX TEMP:  66;

SHEBOYGAN      PTCLDY    61  60  97 CALM      29.95R FOG
6HR MIN TEMP:  58; 6HR MAX TEMP:  62;

WEST BEND      MOCLDY    61  59  94 CALM      29.96R FOG
JUNEAU         MOCLDY    65  40  38 E6        29.95R
6HR MIN TEMP:  64; 6HR MAX TEMP:  65;

$$

LSZ147-162-211300-
LAKE SUPERIOR

STATION/POSITION TIME  TEMP    WIND        PRES    WAVE
                       AIR SEA DIR/SP/G            HT/PER
                 (UTC) (F)     (DEG/KT/KT) (MB)    (FT/S)
W MID LAKE BUOY  1150   58 57   80/  8/ 10 1014.3S   0
DEVILS ISLAND    1200   61      80/ 12/ 13 1013.7F
PORT WING        1100   61      50/  5/  6 1012.9S
SAXON HARBOR     1100   56        CALM     1013.5
$$

LMZ867-665-643>646-211300-
LAKE MICHIGAN

STATION/POSITION TIME  TEMP    WIND        PRES    WAVE
                       AIR SEA DIR/SP/G            HT/PER
                 (UTC) (F)     (DEG/KT/KT) (MB)    (FT/S)
N MID LAKE BUOY  1150   63 63  140/  4/  4 1014.4R   0
NORTHPORT PIER   1100   63     140/  1/  2 1014.2S
SISTER BAY       1126   64     180/  6/  9   N/A
ALGOMA LAKESHORE 1108             CALM       N/A
KEWAUNEE LAKESHO 1100   61     300/  1/  2 1013.2R
SHEBOYGAN LAKESH 1200   66 64  130/  5/  5 1014.4R
ATWATER BUOY     1100   68     110/  4/  6 1014.9R
MILWAUKEE LAKESH 1100   68     100/  4/  5   N/A
S MID LAKE BUOY  1150   68 68   80/  4/  6 1013.5F   0
KENOSHA   LAKESH 1200   70     230/  3/  4 1013.5S
$$

TC  - TEMPERATURE IN CELSIUS
VSB - VISIBILITY IN STATUTE MILES
WCI - WIND CHILL INDEX
HX  - HEAT INDEX



USA.gov is the U.S. government's official web portal to all federal, state and local government web resources and services.